Total_Precipitation_Accumulation
0.00 0.00 0.01 0.00 0.00 0.00 0.00 0.01 0.01 0.05 0.11 0.55 1.59 0.21 0.06 0.04 0.04 0.03 0.01 0.06 0.08 0.04 0.05 0.04 0.03 0.01 0.00 0.00 0.00 0.01 0.04 0.30 0.16 0.15 0.49 0.57 0.22 0.13 0.09 0.03 0.00 0.01 0.10
0.00 0.00 0.01 0.01 0.00 0.00 0.00 0.00 0.00 0.06 0.11 0.09 0.35 0.14 0.08 0.06 0.05 0.04 0.01 0.04 0.08 0.07 0.04 0.06 0.03 0.00 0.02 0.00 0.00 0.02 0.03 0.05 0.18 0.24 0.26 0.18 0.11 0.07 0.06 0.05 0.00 0.00 0.00
0.00 0.00 0.00 0.00 0.00 0.00 0.00 0.00 0.00 0.04 0.08 0.10 0.16 0.07 0.03 0.03 0.04 0.04 0.04 0.06 0.05 0.05 0.04 0.04 0.01 0.02 0.04 0.03 0.02 0.04 0.02 0.02 0.05 0.09 0.05 0.06 0.10 0.04 0.02 0.04 0.03 0.00 0.02
0.10 0.17 0.11 0.03 0.00 0.02 0.00 0.00 0.01 0.06 0.08 0.06 0.11 0.07 0.03 0.01 0.03 0.05 0.06 0.05 0.02 0.02 0.04 0.02 0.01 0.03 0.04 0.05 0.04 0.06 0.04 0.04 0.06 0.06 0.07 0.01 0.04 0.05 0.06 0.06 0.03 0.02 0.01
0.20 0.24 0.26 0.29 0.17 0.08 0.07 0.02 0.00 0.03 0.04 0.04 0.08 0.08 0.05 0.03 0.01 0.03 0.08 0.07 0.09 0.04 0.04 0.10 0.01 0.02 0.02 0.03 0.01 0.06 0.07 0.05 0.03 0.04 0.03 0.00 0.03 0.03 0.06 0.03 0.07 0.03 0.00
0.06 0.06 0.10 0.31 0.40 0.33 0.28 0.15 0.05 0.01 0.03 0.05 0.03 0.05 0.05 0.01 0.00 0.00 0.01 0.01 0.05 0.04 0.03 0.05 0.03 0.07 0.04 0.01 0.00 0.01 0.02 0.03 0.06 0.05 0.06 0.06 0.08 0.04 0.06 0.11 0.10 0.10 0.02
0.04 0.04 0.06 0.19 0.33 0.25 0.19 0.19 0.12 0.08 0.05 0.02 0.02 0.03 0.02 0.02 0.00 0.02 0.03 0.00 0.01 0.01 0.03 0.04 0.02 0.00 0.00 0.02 0.02 0.00 0.00 0.00 0.00 0.01 0.00 0.02 0.05 0.08 0.07 0.13 0.21 0.09 0.02
0.00 0.02 0.09 0.17 0.20 0.28 0.28 0.13 0.09 0.15 0.08 0.02 0.01 0.01 0.01 0.00 0.01 0.01 0.04 0.01 0.02 0.01 0.00 0.02 0.02 0.00 0.02 0.10 0.08 0.07 0.01 0.02 0.03 0.02 0.00 0.00 0.00 0.01 0.04 0.07 0.17 0.05 0.02
0.00 0.00 0.06 0.13 0.18 0.18 0.17 0.20 0.23 0.26 0.16 0.05 0.03 0.00 0.00 0.00 0.00 0.01 0.08 0.01 0.01 0.01 0.01 0.00 0.03 0.03 0.02 0.05 0.05 0.03 0.07 0.02 0.05 0.05 0.01 0.00 0.02 0.03 0.16 0.18 0.06 0.07 0.01
0.00 0.00 0.03 0.19 0.14 0.11 0.09 0.20 0.39 0.50 0.40 0.30 0.12 0.01 0.00 0.00 0.00 0.01 0.09 0.06 0.00 0.01 0.01 0.00 0.01 0.02 0.07 0.06 0.07 0.07 0.02 0.03 0.08 0.09 0.05 0.04 0.05 0.02 0.06 0.09 0.06 0.07 0.07
0.00 0.00 0.01 0.19 0.59 0.56 0.28 0.24 0.35 0.44 0.44 0.40 0.28 0.25 0.21 0.10 0.03 0.03 0.03 0.06 0.00 0.00 0.00 0.00 0.01 0.01 0.00 0.01 0.01 0.06 0.02 0.03 0.08 0.09 0.10 0.09 0.13 0.08 0.02 0.00 0.02 0.05 0.07
0.01 0.01 0.01 0.00 0.03 0.16 0.49 0.66 0.73 0.72 0.54 0.61 0.61 0.64 0.62 0.41 0.26 0.17 0.14 0.01 0.01 0.00 0.00 0.00 0.00 0.00 0.00 0.00 0.02 0.02 0.01 0.00 0.01 0.03 0.03 0.03 0.08 0.06 0.05 0.03 0.00 0.00 0.00
0.01 0.02 0.01 0.00 0.02 0.06 0.09 0.35 0.83 1.23 1.16 0.89 0.70 0.73 0.80 0.87 0.64 0.44 0.34 0.20 0.14 0.09 0.03 0.03 0.04 0.03 0.04 0.05 0.04 0.08 0.02 0.00 0.00 0.00 0.00 0.00 0.03 0.04 0.03 0.02 0.00 0.00 0.00
0.01 0.02 0.02 0.00 0.01 0.08 0.07 0.07 0.09 0.23 0.63 0.95 1.05 0.90 0.85 0.92 0.73 0.52 0.56 0.54 0.45 0.38 0.21 0.14 0.10 0.06 0.02 0.02 0.04 0.01 0.00 0.00 0.00 0.00 0.00 0.02 0.04 0.02 0.00 0.00 0.00 0.00 0.00
0.02 0.02 0.01 0.00 0.00 0.02 0.03 0.03 0.06 0.02 0.20 0.51 0.58 0.57 0.54 0.47 0.41 0.43 0.51 0.45 0.27 0.22 0.29 0.17 0.10 0.02 0.00 0.01 0.00 0.00 0.00 0.00 0.00 0.00 0.01 0.04 0.04 0.02 0.00 0.00 0.00 0.00 0.00
0.03 0.01 0.00 0.00 0.00 0.00 0.01 0.09 0.15 0.11 0.34 0.68 0.60 0.49 0.55 0.61 0.61 0.40 0.46 0.53 0.37 0.31 0.22 0.08 0.03 0.03 0.00 0.00 0.00 0.00 0.00 0.00 0.00 0.01 0.01 0.01 0.00 0.00 0.00 0.00 0.00 0.00 0.00
0.07 0.04 0.03 0.01 0.00 0.00 0.00 0.04 0.05 0.16 0.20 0.23 0.68 0.94 0.62 0.50 1.01 1.01 0.89 0.71 0.63 0.44 0.21 0.15 0.09 0.04 0.01 0.00 0.00 0.00 0.00 0.00 0.00 0.00 0.00 0.00 0.00 0.00 0.00 0.00 0.00 0.00 0.00
0.08 0.06 0.03 0.00 0.00 0.00 0.00 0.00 0.02 0.09 0.12 0.08 0.19 0.40 0.59 0.65 0.73 0.77 1.30 1.26 1.30 1.33 0.85 0.43 0.15 0.04 0.00 0.00 0.00 0.00 0.00 0.00 0.00 0.00 0.00 0.00 0.00 0.00 0.00 0.00 0.00 0.00 0.00
0.13 0.07 0.05 0.02 0.03 0.04 0.01 0.00 0.00 0.01 0.06 0.08 0.21 0.21 0.13 0.16 0.21 0.36 0.62 1.01 0.69 0.55 0.62 0.55 0.33 0.08 0.04 0.01 0.00 0.00 0.00 0.00 0.00 0.00 0.00 0.00 0.00 0.00 0.00 0.00 0.00 0.00 0.00
0.09 0.24 0.19 0.08 0.15 0.06 0.01 0.02 0.02 0.00 0.01 0.06 0.16 0.15 0.22 0.24 0.13 0.06 0.11 0.21 0.22 0.26 0.20 0.10 0.08 0.06 0.07 0.03 0.00 0.00 0.00 0.00 0.00 0.00 0.00 0.00 0.00 0.00 0.00 0.00 0.00 0.00 0.00
0.07 0.11 0.34 0.25 0.14 0.05 0.01 0.01 0.01 0.00 0.00 0.02 0.29 0.64 0.35 0.27 0.24 0.17 0.09 0.04 0.01 0.01 0.04 0.02 0.08 0.12 0.11 0.06 0.00 0.00 0.00 0.00 0.00 0.00 0.00 0.00 0.00 0.00 0.00 0.00 0.00 0.00 0.00
0.40 0.28 0.22 0.40 0.39 0.08 0.02 0.01 0.01 0.06 0.12 0.10 0.16 0.18 0.16 0.11 0.09 0.08 0.09 0.05 0.02 0.01 0.03 0.02 0.08 0.10 0.06 0.03 0.00 0.00 0.00 0.00 0.00 0.00 0.00 0.00 0.00 0.00 0.00 0.00 0.00 0.00 0.00
0.59 0.48 0.29 0.36 0.30 0.23 0.16 0.13 0.09 0.09 0.14 0.15 0.11 0.10 0.07 0.06 0.06 0.05 0.03 0.02 0.00 0.00 0.02 0.03 0.01 0.03 0.02 0.01 0.00 0.00 0.00 0.00 0.00 0.00 0.00 0.00 0.00 0.00 0.00 0.00 0.00 0.00 0.00
0.17 0.40 0.50 0.38 0.53 0.52 0.24 0.13 0.20 0.18 0.16 0.07 0.15 0.12 0.10 0.11 0.07 0.06 0.07 0.07 0.04 0.02 0.01 0.04 0.03 0.00 0.00 0.00 0.00 0.00 0.00 0.00 0.00 0.00 0.00 0.00 0.00 0.00 0.00 0.00 0.00 0.00 0.00
0.15 0.24 0.34 0.42 0.64 0.58 0.56 0.46 0.42 0.48 0.43 0.31 0.18 0.10 0.02 0.02 0.01 0.03 0.04 0.04 0.04 0.05 0.03 0.07 0.08 0.04 0.01 0.00 0.00 0.00 0.00 0.00 0.00 0.00 0.00 0.00 0.00 0.00 0.00 0.00 0.00 0.00 0.00
0.07 0.09 0.15 0.33 0.44 0.51 0.63 0.87 1.16 1.12 0.82 0.84 0.27 0.08 0.05 0.01 0.01 0.03 0.03 0.06 0.05 0.01 0.02 0.04 0.07 0.06 0.05 0.03 0.02 0.01 0.01 0.00 0.00 0.00 0.00 0.00 0.00 0.00 0.00 0.00 0.00 0.00 0.00